HFM4A EDDL-EGLL

Flight info

Callsign HFM4A
Flight time N/A
Altitude 18000
Route NETEX4Z NETEX Z282 DIBIR L179 ROMIN/N0413F320 L179 SASKI L608 LOGAN
Aircraft A343/H-SDE2E3FGHIJ4J5M1RWXY/LB1D1

Departure

Time 2026-05-05 20:08
Airport Düsseldorf Airport (EDDL)

Arrival

Time N/A
Airport London Heathrow Airport (EGLL)
Time Latitude Longitude Altitude Speed Heading
2026-05-05 19:43 51.28278 6.76685 128 ft 0 kts 225°
2026-05-05 19:58 51.28292 6.76711 128 ft 4 kts 237°
2026-05-05 19:58 51.28304 6.76749 133 ft 4 kts 260°
2026-05-05 19:59 51.28303 6.76790 133 ft 4 kts 289°
2026-05-05 19:59 51.28291 6.76825 133 ft 3 kts 319°
2026-05-05 19:59 51.28287 6.76830 133 ft 0 kts 322°
2026-05-05 20:01 51.28293 6.76822 125 ft 3 kts 322°
2026-05-05 20:01 51.28318 6.76793 128 ft 5 kts 322°
2026-05-05 20:02 51.28349 6.76754 127 ft 6 kts 322°
2026-05-05 20:02 51.28385 6.76710 127 ft 7 kts 322°
2026-05-05 20:02 51.28411 6.76657 129 ft 5 kts 288°
2026-05-05 20:02 51.28401 6.76598 126 ft 6 kts 240°
2026-05-05 20:03 51.28378 6.76545 124 ft 6 kts 235°
2026-05-05 20:03 51.28355 6.76494 124 ft 6 kts 233°
2026-05-05 20:03 51.28327 6.76434 125 ft 8 kts 233°
2026-05-05 20:03 51.28293 6.76363 126 ft 9 kts 232°
2026-05-05 20:04 51.28255 6.76283 126 ft 9 kts 232°
2026-05-05 20:04 51.28214 6.76197 128 ft 10 kts 233°
2026-05-05 20:04 51.28170 6.76105 130 ft 11 kts 233°
2026-05-05 20:04 51.28122 6.76005 128 ft 12 kts 233°
2026-05-05 20:05 51.28071 6.75897 126 ft 13 kts 232°
2026-05-05 20:05 51.28016 6.75782 128 ft 13 kts 232°
2026-05-05 20:05 51.27958 6.75661 124 ft 14 kts 233°
2026-05-05 20:05 51.27898 6.75535 130 ft 13 kts 233°
2026-05-05 20:06 51.27851 6.75434 128 ft 10 kts 236°
2026-05-05 20:06 51.27864 6.75343 124 ft 9 kts 316°
2026-05-05 20:06 51.27920 6.75286 122 ft 10 kts 330°
2026-05-05 20:06 51.27978 6.75259 122 ft 7 kts
2026-05-05 20:07 51.28008 6.75297 121 ft 4 kts 54°
2026-05-05 20:07 51.28023 6.75329 124 ft 3 kts 53°
2026-05-05 20:07 51.28120 6.75535 127 ft 53 kts 52°
2026-05-05 20:07 51.28469 6.76262 128 ft 110 kts 52°
2026-05-05 20:08 51.29027 6.77445 142 ft 155 kts 51°
2026-05-05 20:08 51.29676 6.78828 596 ft 166 kts 50°
2026-05-05 20:08 51.30384 6.80309 1322 ft 171 kts 51°
2026-05-05 20:08 51.31154 6.81924 1813 ft 194 kts 51°
2026-05-05 20:09 51.32033 6.83774 2291 ft 223 kts 53°
2026-05-05 20:09 51.33011 6.85820 3045 ft 238 kts 53°
2026-05-05 20:09 51.34040 6.87979 3953 ft 249 kts 53°
2026-05-05 20:09 51.35289 6.89948 4877 ft 258 kts 34°
2026-05-05 20:10 51.36974 6.91021 5815 ft 265 kts 12°
2026-05-05 20:10 51.38810 6.91532 6774 ft 271 kts
2026-05-05 20:10 51.40689 6.91917 7702 ft 276 kts
2026-05-05 20:10 51.42606 6.91585 8658 ft 279 kts 343°
2026-05-05 20:11 51.44314 6.90107 9611 ft 283 kts 318°
2026-05-05 20:11 51.45435 6.87504 10330 ft 293 kts 290°
2026-05-05 20:11 51.45652 6.84171 10670 ft 315 kts 260°
2026-05-05 20:11 51.45159 6.80675 11091 ft 329 kts 263°
2026-05-05 20:12 51.45140 6.77006 11755 ft 336 kts 270°
2026-05-05 20:12 51.45139 6.73233 12514 ft 342 kts 268°
2026-05-05 20:12 51.44986 6.69410 13274 ft 346 kts 260°
2026-05-05 20:12 51.44371 6.65670 13998 ft 349 kts 247°
2026-05-05 20:13 51.43417 6.62089 14742 ft 351 kts 244°